Weather History for Al Ahsa, Saudi Arabia

Change the Weather History Date:

Wednesday, September 25, 2013

  Actual Average Record
Temperature  
Mean Temperature 88 °F -  
Max Temperature 102 °F 98 °F 111 °F (2011)
Min Temperature 75 °F 70 °F 71 °F (1996)
Cooling Degree Days 24    
Growing Degree Days 38 (Base 50)    
Moisture  
Dew Point 43 °F    
Average Humidity 19    
Maximum Humidity 36    
Minimum Humidity 5    
Precipitation  
Precipitation 0.00 in - - ()
Sea Level Pressure  
Sea Level Pressure 29.76 in    
Wind  
Wind Speed 11 mph ()    
Max Wind Speed 25 mph    
Max Gust Speed -    
Visibility 3.7 miles    
Events      
Averages and records for this station are not official NWS values.
T = Trace of Precipitation, MM = Missing Value Source: Averaged Metar Reports

Daily Weather History Graph

Daily Weather History Graph

Search for Another Location

Airport:

Trip Planner

Search our weather history database for the weather conditions in past years. The results will help you decide how hot, cold, wet, or windy it might be!

Date:

Astronomy

Sep. 25, 2013 Rise Set
Actual Time 5:31 AM AST 5:35 PM AST
Civil Twilight 5:08 AM AST 5:58 PM AST
Nautical Twilight 4:42 AM AST 6:24 PM AST
Astronomical Twilight 4:15 AM AST 6:51 PM AST
Moon 9:53 PM AST (9/25) 10:47 AM AST (9/25)
Length of Visible Light 12h 49m
Length of Day
12h 03m
Waning Gibbous, 67% of the Moon is Illuminated
Sep 25
Waning Gibbous
Sep 27
Last Quarter
Oct 5
New
Oct 12
First Quarter
Oct 19
Full

Hourly Weather History & Observations

Time (AST) Temp. Dew Point Humidity Pressure Visibility Wind Dir Wind Speed Gust Speed Precip Events Conditions
12:00 AM 82 °F 46 °F 19% 29.73 in 6 mi NW 4.6 mph - -  
12:00 AM 82.4 °F 46.4 °F 28% 29.77 in - NW 4.6 mph - N/A   Clear
1:00 AM 80.6 °F 46.4 °F 30% 29.74 in - NW 5.8 mph - N/A   Clear
2:00 AM 78.8 °F 50.0 °F 36% 29.74 in - WNW 3.5 mph - N/A   Clear
3:00 AM 79 °F 50 °F 26% 29.72 in 6 mi NW 6.9 mph - -  
3:00 AM 78.8 °F 50.0 °F 36% 29.74 in - NW 6.9 mph - N/A   Clear
5:00 AM 77.0 °F 46.4 °F 34% 29.74 in - WNW 12.7 mph - N/A   Clear
6:00 AM 77 °F 43 °F 19% 29.74 in 6 mi WNW 10.4 mph - -  
6:00 AM 77.0 °F 42.8 °F 29% 29.77 in - WNW 10.4 mph - N/A   Clear
7:00 AM 80.6 °F 39.2 °F 23% 29.80 in - NW 8.1 mph - N/A   Clear
8:00 AM 84.2 °F 39.2 °F 20% 29.80 in - NW 16.1 mph - N/A   Clear
9:00 AM 90 °F 39 °F 9% 29.78 in 6 mi NNW 15.0 mph - -  
9:00 AM 89.6 °F 39.2 °F 17% 29.80 in - NNW 15.0 mph - N/A   Clear
10:00 AM 93.2 °F 41.0 °F 16% 29.80 in - NNW 16.1 mph - N/A   Clear
11:00 AM 96.8 °F 37.4 °F 13% 29.80 in 4.3 mi NNW 19.6 mph - N/A   Clear
12:00 PM 98 °F 36 °F 5% 29.75 in 4 mi NNW 19.6 mph - -   Blowing Sand
12:00 PM 98.6 °F 35.6 °F 11% 29.77 in 3.7 mi NNW 19.6 mph - N/A   Clear
1:00 PM 100.4 °F 37.4 °F 11% 29.74 in 3.1 mi North 21.9 mph - N/A   Blowing Sand
2:00 PM 100.4 °F 39.2 °F 12% 29.74 in 3.1 mi North 25.3 mph - N/A   Blowing Sand
3:00 PM 101 °F 41 °F 7% 29.70 in 2 mi North 25.3 mph - -   Blowing Sand
3:00 PM 100.4 °F 41.0 °F 13% 29.74 in 2.5 mi North 25.3 mph - N/A   Blowing Sand
4:00 PM 98.6 °F 42.8 °F 15% 29.74 in 1.9 mi North 24.2 mph - N/A   Blowing Sand
5:00 PM 96.8 °F 42.8 °F 16% 29.74 in 1.9 mi North 20.7 mph - N/A   Widespread Dust
6:00 PM 93 °F 41 °F 9% 29.74 in 2 mi North 19.6 mph - -   Blowing Sand
6:00 PM 93.2 °F 41.0 °F 16% 29.77 in 2.5 mi North 19.6 mph - N/A   Widespread Dust
7:00 PM 91.4 °F 41.0 °F 17% 29.77 in 3.1 mi North 17.3 mph - N/A   Widespread Dust
8:00 PM 87.8 °F 44.6 °F 22% 29.80 in 3.7 mi North 10.4 mph - N/A   Clear
9:00 PM 87 °F 46 °F 15% 29.78 in 4 mi NNW 8.1 mph - -   Widespread Dust
9:00 PM 87.8 °F 46.4 °F 24% 29.80 in 4.3 mi NNW 8.1 mph - N/A   Clear
10:00 PM 86.0 °F 46.4 °F 25% 29.80 in - NNW 12.7 mph - N/A   Clear
11:00 PM 86.0 °F 46.4 °F 25% 29.80 in - North 11.5 mph - N/A   Clear